sat.trackr.live / text

‹ back to catalog

ECHOSTAR 15

NORAD 36792 · 2010-034A

PAYLOAD ACTIVE UNKNOWN

§ Identity

Operator
Country
US
Launch date
2010-07-10
Launch site
TYMSC
Launch vehicle
Mass (kg)
RCS (m²)
6.31

Purposes: comms

External: N2YO · Heavens-Above · Gunter

§ Orbital elements

Epoch: 2026-09-20T03:51:32.548896Z

Period
1,436.09 min
Inclination
0.0149°
Eccentricity
0.0002497
Mean motion
1.00272544 rev/d
Perigee alt
35,775.9 km
Apogee alt
35,796.9 km
Semi-major
42,164.5 km
B*
0.0000e+0
RAAN
237.8520°
Arg perigee
268.1789°
Mean anomaly
152.1173°
Rev number
5,927

§ Raw data

ECHOSTAR 151 36792U 10034A   26263.16079339 -.00000005  00000+0  00000+0 0  99962 36792   0.0149 237.8520 0002497 268.1789 152.1173  1.00272544 59271

JSON: /api/v1/satellites/36792 · /tle

For live sub-satellite position, see the globe view (requires WebGL).

§ Visibility from observer

Set your observer location to see the next 7 days of passes ≥ 10°. The values pass through the URL so the page stays shareable.

No JS? Fill the form by hand. The geolocation button needs JavaScript.